Location: Lucinges
(46.1914°N, 6.3173°E)
Time: 01:28:12
(UTC+00:00)

Daily predictions for brighter satellites

Satellite Brightness Start Highest point End
(mag) Time Altitude Azimuth Time Altitude Azimuth Time Altitude Azimuth
STARLINK-1099 4.3 00:00:28 10° WNW 00:03:25 41° W 00:03:25 41° W
ATLAS CENTAUR R/B 4.1 00:03:04 10° NNW 00:04:44 17° NNE 00:07:09 10° ENE
GEOS 3 Rocket 3.7 00:07:39 30° SE 00:10:21 80° NE 00:15:39 10° NW
Cosmos 1726 3.2 00:07:56 10° NNW 00:10:54 34° WNW 00:10:54 34° WNW
Cosmos 2058 Rocket 3.7 00:08:17 10° N 00:12:35 49° ENE 00:13:46 38° ESE
COSMOS 2455 2.9 00:11:39 45° S 00:13:24 64° ESE 00:19:21 10° NE
Meteor 1-29 3.3 00:10:31 10° NNE 00:13:32 57° ENE 00:13:32 57° ENE
Cosmos 2228 2.8 00:10:52 10° N 00:15:08 83° W 00:15:32 72° SSW
SJ 16-02 4.2 00:13:38 10° NNE 00:15:46 13° NE 00:17:55 10° E
Meteor 2-15 Rocket 4.5 00:12:44 10° NNW 00:18:52 68° W 00:20:55 42° SSW
SL-14 R/B 4.0 00:18:39 40° ESE 00:18:58 41° E 00:22:38 10° NNE
Cosmos 1953 3.7 00:16:11 10° NNW 00:19:26 27° W 00:19:26 27° W
IRAS Rocket 4.4 00:17:53 34° SSE 00:20:24 72° ENE 00:25:57 10° NNW
Cosmos 1340 Rocket 3.7 00:17:34 10° NNW 00:21:08 35° W 00:21:08 35° W
Okean 1-7 Rocket 3.8 00:22:03 50° SE 00:22:53 60° E 00:27:19 10° NNE
Cosmos 1174 3.9 00:23:33 51° ENE 00:23:33 51° ENE 00:26:30 10° NE
Cosmos 921 Rocket 4.1 00:23:34 30° ESE 00:24:13 32° E 00:28:01 10° NE
Cosmos 1300 3.5 00:20:40 10° N 00:24:20 43° ENE 00:25:04 38° ESE
BREEZE M DEB (TANK) 3.8 00:26:49 25° ENE 00:26:49 25° ENE 00:28:30 10° E
COSMOS 2487 3.0 00:24:30 10° NNW 00:27:18 48° WNW 00:27:18 48° WNW
Cosmos 1626 2.1 00:34:31 65° ESE 00:34:43 67° E 00:38:25 10° NNE
STARLINK-60 3.9 00:36:27 42° ENE 00:36:27 42° ENE 00:38:45 10° ENE
Cosmos 1656 Rocket 4.2 00:33:51 31° WSW 00:36:18 51° WNW 00:41:46 10° NNE
Cosmos 1606 Rocket 3.9 00:34:20 10° NNW 00:38:27 45° W 00:38:48 44° WSW
FALCON 9 R/B 3.5 00:38:25 34° SSW 00:40:27 39° SSE 00:57:06 10° E
Nadezhda 1 Rocket 4.4 00:35:50 10° N 00:41:55 59° ENE 00:45:52 23° SSE
MOZ.5/SAFIR/RUBIN 5/SL-8 4.1 00:44:16 30° SE 00:46:23 61° ENE 00:50:58 10° N
Meteor 2-21 4.5 00:45:34 38° SSW 00:48:03 74° W 00:54:16 10° N
Cosmos 2297 Rocket 3.6 00:43:12 10° NNW 00:48:26 37° NE 00:53:38 10° ESE
SL-4 R/B 2.3 00:49:12 47° SW 00:50:35 78° SSE 00:55:20 10° ENE
Cosmos 1437 3.0 00:52:48 56° ENE 00:52:48 56° ENE 00:55:32 10° NNE
NOSS 5 (C) 4.4 00:49:43 10° NW 00:52:57 85° SW 00:53:31 62° SSE
Cosmos 1674 4.1 00:53:21 25° W 00:53:42 25° WNW 00:56:54 10° NNW
SL-19 R/B 4.2 00:52:21 10° NNE 00:57:44 76° WNW 01:00:03 37° SSW
ATLAS CENTAUR R/B 1.5 00:56:56 45° WSW 00:58:08 69° NW 01:02:17 10° NNE
Cosmos 1777 Rocket 4.0 00:54:57 10° NNW 01:00:07 62° WSW 01:01:54 39° S
SL-16 R/B 2.7 00:56:01 20° SSE 01:00:27 74° ENE 01:06:38 10° NNW
Timation 2 Rocket 3.9 00:54:07 10° NNW 01:00:30 81° WSW 01:04:30 23° SSE
NOSS 3-4 (A) 3.9 00:57:31 23° WSW 01:01:09 55° NW 01:07:27 10° NE
NOSS 3-4 (C) 3.9 00:57:38 24° WSW 01:01:15 55° NW 01:07:34 10° NE
BREEZE-M R/B 3.3 01:01:07 44° S 01:01:38 47° SSE 01:04:44 10° ENE
FALCON 9 DEB 4.1 01:02:08 34° ESE 01:02:08 34° ESE 01:04:53 10° ENE
Spot 1 4.4 01:00:54 44° SSW 01:02:00 55° W 01:06:46 10° NNW
Cosmos 1602 Rocket 4.1 01:01:58 33° SSE 01:03:33 51° E 01:07:44 10° NNE
STARLINK-29 3.2 01:04:34 56° ESE 01:04:34 56° ESE 01:07:23 10° ENE
Cosmos 1455 4.0 01:03:26 10° NNE 01:06:42 27° ENE 01:09:23 13° SE
ATLAS 3B R/B 2.7 01:00:59 10° NW 01:07:40 61° WSW 01:12:43 20° SSE
CENTAUR R/B 3.8 01:04:06 10° NW 01:11:24 36° WSW 01:14:47 27° SSW
BREEZE-M DEB (TANK) 1.5 01:12:38 61° NW 01:12:49 64° NNW 01:15:04 10° ENE
GP-B 4.5 01:09:03 10° NNE 01:13:07 34° E 01:16:10 16° SE
Meteor 2-1 Rocket 4.3 01:08:37 10° N 01:14:09 71° ENE 01:18:03 20° SSE
Cosmos 1867 4.2 01:11:04 10° NW 01:15:56 33° WSW 01:16:44 32° SW
Cosmos 1745 Rocket 3.9 01:12:45 31° S 01:15:56 86° W 01:22:07 10° N
RESURS DK-1 2.5 01:19:17 41° SW 01:20:33 67° WNW 01:24:42 10° NNE
Cosmos 2227 Rocket 2.8 01:18:35 10° NNW 01:24:12 57° ENE 01:29:46 10° SE
Meteor 1-24 Rocket 4.2 01:22:03 28° SW 01:24:18 43° WNW 01:29:26 10° N
Cosmos 1356 Rocket 3.4 01:20:18 10° NNW 01:24:25 66° W 01:25:49 39° SSW
Cosmos 2369 Rocket 4.5 01:22:52 10° WNW 01:26:11 16° NW 01:29:30 10° N
Cosmos 1697 Rocket 4.2 01:23:11 13° SSE 01:27:06 27° ESE 01:31:48 10° NE
CZ-2D R/B 2.0 01:22:12 10° NNE 01:27:30 87° ESE 01:30:15 29° SSW
STARLINK-1254 4.4 01:24:40 10° NW 01:28:45 53° NNE 01:32:49 10° E
ADEOS II 3.2 01:25:14 10° NNE 01:30:07 38° E 01:34:08 14° SSE
ATLAS 2AS CENTAUR R/B 3.8 01:23:17 13° WSW 01:30:14 46° NW 01:37:47 10° NE
IKONOS-2 4.5 01:29:56 33° S 01:31:43 67° WSW 01:36:00 10° NNW
CZ-4C R/B 3.7 01:30:46 37° SSW 01:32:01 50° W 01:36:15 10° NNW
STARLINK-1231 4.3 01:29:40 10° NW 01:33:46 56° NNE 01:37:51 10° ESE
STARLINK-1228 3.0 01:32:14 10° WNW 01:35:31 58° SW 01:38:48 10° SE
STARLINK-1234 2.8 01:33:39 10° WNW 01:36:44 58° SW 01:37:02 54° S
Resurs 1-4 Rocket 2.1 01:31:58 10° NNE 01:37:15 77° WNW 01:40:11 27° SSW
STARLINK-1212 2.7 01:35:00 10° WNW 01:38:06 77° SSW 01:41:12 10° SE
STARLINK-1105 2.6 01:35:28 10° WNW 01:38:34 76° SSW 01:41:39 10° SE
STARLINK-1232 4.2 01:34:39 10° NW 01:38:46 59° NNE 01:42:52 10° ESE
STARLINK-1209 3.0 01:35:55 10° WNW 01:38:42 50° WSW 01:38:42 50° WSW
USA 81 4.0 01:36:19 25° S 01:39:26 88° W 01:44:45 10° N
STARLINK-1247 2.7 01:36:23 10° WNW 01:39:30 75° SSW 01:42:36 10° SE
STARLINK-1227 2.6 01:36:51 10° WNW 01:39:56 74° SSW 01:43:01 10° SE
STARLINK-52 3.0 01:39:41 42° WSW 01:40:38 76° NNW 01:43:52 10° ENE
STARLINK-1226 2.7 01:37:42 10° WNW 01:40:48 73° SSW 01:43:55 10° SE
STARLINK-1215 2.7 01:38:38 10° WNW 01:41:45 72° SW 01:44:51 10° SE
Cosmos 1758 Rocket 3.8 01:39:23 23° S 01:41:54 62° E 01:46:14 10° NNE
ARIANE 5 R/B 4.0 01:37:45 10° NE 01:42:11 29° E 01:46:32 10° SSE
STARLINK-1217 2.7 01:40:24 10° WNW 01:43:30 69° SW 01:46:37 10° SE
STARLINK-1208 4.1 01:39:36 10° WNW 01:43:44 63° NNE 01:47:51 10° ESE
STARLINK-1229 2.7 01:41:19 10° WNW 01:44:27 68° SSW 01:47:32 10° SE
NPP 3.6 01:39:18 10° NNE 01:44:42 78° WNW 01:47:57 25° SSW
H-2A R/B 4.4 01:41:26 10° ESE 01:44:52 24° ENE 01:48:22 10° N
STARLINK-1270 2.7 01:42:11 10° WNW 01:45:18 66° SSW 01:48:24 10° SE
STARLINK-1189 2.7 01:44:02 10° WNW 01:47:08 64° SW 01:50:13 10° SE
STARLINK-1188 2.7 01:44:55 10° WNW 01:48:01 63° SW 01:51:06 10° SE
STARLINK-1235 3.0 01:45:39 10° WNW 01:48:39 48° SW 01:51:39 10° SE
STARLINK-1271 4.0 01:44:36 10° WNW 01:48:44 67° NNE 01:52:52 10° ESE
STARLINK-1187 2.8 01:46:03 10° WNW 01:49:05 54° SW 01:52:08 10° SE
Cosmos 1898 Rocket 3.7 01:44:06 10° NNW 01:49:29 75° ENE 01:54:47 10° SSE
Starlink 7 placeholder 4.3 01:49:43 15° NW 01:50:21 17° NNW 01:51:49 10° NNE
Meteor 1-21 Rocket 4.2 01:46:49 23° SSW 01:50:24 85° WNW 01:56:07 10° N
STARLINK-1191 2.8 01:47:24 10° WNW 01:50:28 59° SW 01:53:31 10° SE
Lacrosse 4 Rocket 3.6 01:47:09 10° NNW 01:51:00 29° NE 01:54:45 10° ESE
STARLINK-1221 2.8 01:48:16 10° WNW 01:51:20 58° SW 01:54:23 10° SE
Cosmos 1656 3.8 01:48:20 23° SSW 01:51:58 75° ESE 01:57:36 10° NNE
STARLINK-1222 2.8 01:49:10 10° WNW 01:52:13 57° SW 01:55:16 10° SE
STARLINK-1214 2.8 01:50:05 10° WNW 01:53:09 56° SW 01:56:10 10° SE
STARLINK-1154 3.9 01:49:34 10° WNW 01:53:44 71° NNE 01:57:52 10° ESE
CZ-4C R/B 3.0 01:50:43 18° S 01:53:56 37° ESE 01:59:11 10° NE
Cosmos 2084 3.7 01:52:18 26° SW 01:54:45 68° NW 01:59:13 10° NE
SJ 16-02 1.3 01:50:33 10° NNW 01:55:01 84° WSW 01:59:17 11° SSE
Cosmos 468 Rocket 4.0 01:52:22 22° S 01:55:41 74° ESE 02:00:49 10° NNE
Cosmos 1953 Rocket 4.3 01:54:38 14° SSE 01:58:14 52° E 02:02:34 10° NNE
STARLINK-1197 3.8 01:54:33 10° WNW 01:58:42 76° NNE 02:02:51 10° ESE
Cosmos 1937 Rocket 3.9 01:54:30 10° NNW 01:59:44 67° ENE 02:04:58 10° SSE
COSMOS 2455 4.2 01:54:47 11° W 01:59:46 30° NW 02:05:02 10° NNE
Cosmos 2369 4.5 01:55:55 15° S 02:00:19 46° ESE 02:05:42 10° NE
Meteor 2-10 Rocket 3.5 01:56:39 10° NNW 02:01:57 65° W 02:06:00 16° S
Cosmos 921 Rocket 4.4 02:00:21 18° WSW 02:02:31 26° WNW 02:06:10 10° N
STARLINK-1198 3.7 01:59:31 10° WNW 02:03:40 81° NNE 02:07:49 10° ESE
Cosmos 1709 Rocket 4.0 02:01:48 20° SSW 02:06:07 65° WNW 02:12:13 10° N
STARLINK-1199 3.6 02:04:32 10° WNW 02:08:41 86° NNE 02:12:50 10° ESE
STARLINK-1210 3.6 02:09:29 10° WNW 02:13:39 89° SSW 02:17:47 10° ESE
STARLINK-1320 2.8 02:14:52 26° SW 02:16:26 78° SSE 02:19:34 10° ENE
STARLINK-1322 2.8 02:15:11 26° SW 02:16:46 79° SSE 02:19:54 10° ENE
Cosmos 2219 3.6 02:11:40 10° NW 02:16:58 42° WSW 02:22:13 10° S
STARLINK-1324 2.8 02:15:32 26° SW 02:17:07 79° SSE 02:20:15 10° ENE
STARLINK-1294 2.8 02:15:47 26° SW 02:17:24 80° SSE 02:20:33 10° ENE
STARLINK-1261 2.8 02:16:10 26° SW 02:17:47 80° SSE 02:20:54 10° ENE
STARLINK-1325 2.8 02:16:30 25° SW 02:18:08 81° SSE 02:21:16 10° ENE
STARLINK-1333 2.8 02:16:48 25° SW 02:18:27 81° SE 02:21:35 10° ENE
STARLINK-1219 3.5 02:14:28 10° WNW 02:18:37 83° SSW 02:22:46 10° SE
STARLINK-1334 2.8 02:17:07 25° SW 02:18:47 82° SSE 02:21:55 10° ENE
STARLINK-1326 2.8 02:17:28 25° SW 02:19:08 82° SE 02:22:16 10° ENE
Cosmos 1980 Rocket 3.3 02:14:09 10° S 02:19:16 38° ESE 02:24:25 10° NE
STARLINK-1323 2.8 02:17:47 25° SW 02:19:29 83° SE 02:22:36 10° ENE
STARLINK-1338 3.1 02:17:39 23° SW 02:19:41 76° SSE 02:23:10 10° ENE
STARLINK-1349 2.8 02:18:06 24° SW 02:19:48 83° SSE 02:22:56 10° ENE
STARLINK-1336 2.8 02:18:27 24° SW 02:20:10 84° SSE 02:23:17 10° ENE
Cosmos 858 Rocket 4.5 02:15:07 10° NNW 02:20:25 83° WSW 02:25:42 10° SSE
STARLINK-1331 2.8 02:18:45 24° SW 02:20:29 84° SSE 02:23:37 10° ENE
STARLINK-1344 2.8 02:19:05 24° SW 02:20:49 85° SSE 02:23:57 10° ENE
STARLINK-1343 2.8 02:19:25 24° SW 02:21:09 85° SSE 02:24:17 10° ENE
STARLINK-1346 2.8 02:19:43 23° SW 02:21:31 86° SSE 02:24:41 10° ENE
STARLINK-1328 2.8 02:20:05 23° WSW 02:21:51 86° SE 02:24:59 10° ENE
Cosmos 1328 3.8 02:19:19 19° SSW 02:22:05 66° W 02:26:05 10° N
STARLINK-1354 2.8 02:20:22 23° WSW 02:22:10 87° SSE 02:25:17 10° ENE
STARLINK-1347 2.8 02:20:44 23° WSW 02:22:32 87° SE 02:25:40 10° ENE
CRYOSAT 2 4.4 02:17:51 10° N 02:22:47 78° W 02:27:17 12° SSW
STARLINK-1357 2.8 02:21:02 23° WSW 02:22:50 88° SSE 02:25:58 10° ENE
STARLINK-1335 2.8 02:21:22 23° WSW 02:23:11 88° SSE 02:26:19 10° ENE
STARLINK-1327 2.8 02:21:41 22° WSW 02:23:31 89° SE 02:26:39 10° ENE
STARLINK-1211 3.5 02:19:26 10° WNW 02:23:35 78° SSW 02:27:43 10° SE
STARLINK-1371 3.1 02:21:31 21° SW 02:23:43 81° SSE 02:27:13 10° ENE
STARLINK-1340 2.8 02:22:01 22° WSW 02:23:52 89° S 02:27:00 10° ENE
STARLINK-1356 2.8 02:22:21 22° WSW 02:24:12 90° E 02:27:20 10° ENE
ERS-2 2.4 02:20:42 10° SSE 02:24:20 72° ENE 02:28:00 10° N
STARLINK-1345 2.8 02:22:41 22° WSW 02:24:33 89° NNW 02:27:41 10° ENE
STARLINK-1355 2.8 02:22:59 22° WSW 02:24:53 89° N 02:28:01 10° ENE
STARLINK-1321 2.8 02:23:18 21° WSW 02:25:12 89° NNW 02:28:21 10° ENE
STARLINK-1358 2.8 02:23:39 21° WSW 02:25:34 88° NW 02:28:42 10° ENE
STARLINK-1341 3.1 02:23:29 20° SW 02:25:46 84° SSE 02:29:16 10° ENE
STARLINK-1332 2.8 02:23:57 21° WSW 02:25:53 87° NW 02:29:01 10° ENE
STARLINK-1348 2.8 02:24:18 21° WSW 02:26:14 87° NNW 02:29:22 10° ENE
STARLINK-1330 2.8 02:24:36 21° WSW 02:26:34 87° NNW 02:29:42 10° ENE
STARLINK-1363 2.8 02:24:56 21° WSW 02:26:53 86° NNW 02:30:02 10° ENE
STARLINK-1337 2.8 02:25:15 20° WSW 02:27:14 85° NW 02:30:22 10° ENE
STARLINK-1342 2.8 02:25:35 20° WSW 02:27:35 85° NNW 02:30:43 10° ENE
STARLINK-1374 3.1 02:25:26 19° WSW 02:27:48 86° SSE 02:31:20 10° ENE
STARLINK-1364 2.8 02:25:55 20° WSW 02:27:55 84° NW 02:31:03 10° ENE
STARLINK-1376 2.8 02:26:15 20° WSW 02:28:16 84° NNW 02:31:24 10° ENE
IRS-1C 4.1 02:23:04 10° NNE 02:28:27 83° WNW 02:33:25 12° SSW
STARLINK-1360 2.8 02:26:30 20° WSW 02:28:32 84° NNW 02:31:41 10° ENE
STARLINK-1245 3.5 02:24:26 10° WNW 02:28:34 72° SW 02:32:42 10° SE
STARLINK-1361 2.8 02:26:56 20° WSW 02:28:58 83° NNW 02:32:06 10° ENE
STARLINK-1367 2.9 02:27:10 19° WSW 02:29:15 83° NNW 02:32:25 10° ENE
CSL-04 DEB 4.5 02:25:20 10° SSE 02:29:34 79° WSW 02:33:55 10° NNW
STARLINK-1366 2.8 02:27:33 19° WSW 02:29:37 82° NNW 02:32:45 10° ENE
STARLINK-1339 3.1 02:27:27 18° WSW 02:29:54 89° SE 02:33:25 10° ENE
SL-4 R/B 3.3 02:25:56 10° W 02:30:36 47° N 02:35:05 10° ENE
CZ-4B R/B 4.4 02:26:37 10° N 02:31:15 36° WNW 02:35:13 14° SW
STARLINK-1377 3.1 02:29:28 18° WSW 02:31:59 88° NNW 02:35:31 10° ENE
Cosmos 2297 Rocket 2.7 02:27:16 10° NW 02:32:30 39° WSW 02:37:40 10° S
STARLINK-1233 3.5 02:29:25 10° WNW 02:33:32 67° SW 02:37:38 10° SE
STARLINK-1353 3.1 02:31:17 17° WSW 02:33:51 86° NNW 02:37:21 10° ENE
STARLINK-1375 3.1 02:33:04 16° WSW 02:35:43 83° NNW 02:39:12 10° ENE
Cosmos 2082 3.7 02:30:42 10° NNW 02:36:21 71° WSW 02:41:56 10° SSE
Cosmos 540 Rocket 3.6 02:32:22 11° SSW 02:37:22 72° ESE 02:42:31 10° NNE
ATLAS CENTAUR R/B 3.9 02:35:25 10° WNW 02:37:43 14° NNW 02:39:57 10° N
STARLINK-1350 3.2 02:35:22 15° WSW 02:38:06 80° NNW 02:41:36 10° ENE
Cosmos 990 Rocket 4.4 02:33:23 10° NW 02:38:18 41° WSW 02:43:11 10° S
STARLINK-1204 3.6 02:34:25 10° WNW 02:38:31 62° SW 02:42:36 10° SE
FALCON 9 DEB 4.1 02:35:24 10° W 02:38:41 44° NNW 02:42:02 10° NE
STARLINK-1352 3.2 02:37:40 15° WSW 02:40:33 77° NNW 02:44:04 10° ENE
OE (NEXTSAT) 4.3 02:37:14 10° W 02:40:44 90° S 02:44:13 10° E
Landsat 5 4.2 02:36:48 10° SSE 02:41:13 63° ENE 02:45:42 10° N
Cosmos 1825 Rocket 4.3 02:38:21 15° SW 02:41:34 37° WNW 02:45:37 10° N
Cosmos 2278 4.0 02:36:13 10° SSW 02:41:48 68° ESE 02:47:26 10° NNE
Cosmos 1455 3.6 02:39:17 10° NW 02:42:10 21° W 02:44:16 14° SW
STARLINK-1368 3.3 02:39:45 14° WSW 02:42:43 74° NNW 02:46:15 10° ENE
CZ-2D R/B 3.7 02:38:41 10° NNE 02:42:48 72° ESE 02:47:00 10° S
STARLINK-1238 3.6 02:39:23 10° WNW 02:43:27 57° SW 02:47:30 10° SE
Meteor 1-11 4.2 02:38:22 10° SSW 02:44:00 79° W 02:49:39 10° N
Meteor 1-28 Rocket 3.1 02:40:24 10° S 02:44:11 71° W 02:47:57 10° NNW
USA 234 4.1 02:38:18 10° ENE 02:44:24 40° SE 02:50:28 10° SSW
STARLINK-1369 3.3 02:41:37 13° WSW 02:44:38 72° NNW 02:48:08 10° ENE
SL-16 R/B 3.9 02:41:07 13° SW 02:44:40 20° W 02:49:04 10° NW
ATLAS CENTAUR R/B 3.0 02:43:37 10° WNW 02:46:57 36° SW 02:54:11 10° SSE
STARLINK-1372 3.4 02:43:58 12° WSW 02:47:06 70° NNW 02:50:38 10° ENE
Cosmos 2074 Rocket 4.0 02:41:07 10° SSW 02:47:24 78° W 02:53:44 10° N
Cosmos 2263 Rocket 3.8 02:42:59 10° NNW 02:48:16 40° NE 02:53:28 10° ESE
STARLINK-1201 3.7 02:44:24 10° WNW 02:48:26 52° SW 02:52:27 10° SE
STARLINK-1378 3.4 02:46:05 12° WSW 02:49:20 67° NNW 02:52:52 10° ENE
Cosmos 841 Rocket 3.5 02:44:27 10° SSW 02:49:41 84° WNW 02:54:57 10° NNE
STARLINK-1329 3.4 02:46:35 12° WSW 02:49:51 67° NNW 02:53:24 10° ENE
Cosmos 372 Rocket 4.1 02:44:56 10° NNW 02:50:04 81° ENE 02:55:13 10° SSE
GP-B 4.4 02:46:39 10° NNW 02:50:15 25° WNW 02:53:37 11° SW
STARLINK-1365 3.5 02:47:17 11° WSW 02:50:35 64° NNW 02:54:06 10° NE
STARLINK-1240 4.4 02:46:38 10° NW 02:50:44 55° NNE 02:54:47 10° ESE
IRS-1D 4.5 02:46:10 10° N 02:51:01 36° WNW 02:55:45 10° SW
STARLINK-1379 3.5 02:48:13 11° WSW 02:51:33 65° NNW 02:55:05 10° NE
STARLINK-1362 3.5 02:48:47 11° WSW 02:52:09 65° NNW 02:55:41 10° NE
STARLINK-1206 3.8 02:49:24 10° WNW 02:53:23 48° SW 02:57:23 10° SE
Cosmos-2242 4.1 02:50:12 10° NNW 02:53:45 26° W 02:57:18 10° SW
COBE Rocket 4.0 02:49:23 10° S 02:54:13 60° W 02:59:15 10° NNW
STARLINK-1373 3.5 02:50:59 10° WSW 02:54:27 63° NNW 02:57:59 10° NE
Cosmos 1869 3.9 02:50:40 10° N 02:54:31 57° ENE 02:58:20 10° SSE
Cosmos 1400 Rocket 3.0 02:51:05 10° NNW 02:55:07 54° W 02:59:08 10° S
STARLINK-1216 4.3 02:51:36 10° NW 02:55:43 58° NNE 02:59:48 10° ESE
Cosmos 2221 2.8 02:51:36 10° N 02:55:56 71° E 03:00:15 10° SSE
STARLINK-1390 3.6 02:53:00 10° WSW 02:56:31 61° NNW 03:00:02 10° NE
ATLAS 3B R/B 4.4 02:55:04 10° W 02:57:06 11° WSW 02:59:10 10° WSW
STARLINK-1205 3.9 02:54:24 10° WNW 02:58:21 44° SW 03:02:17 10° SSE
Cosmos 2184 Rocket 4.1 02:52:48 10° SSW 02:58:57 67° W 03:05:07 10° N
SL-08 R/B 3.9 02:55:27 10° SSW 02:59:47 36° W 03:04:06 10° NNW
CZ-4C R/B 3.0 02:56:33 10° S 03:00:07 73° WSW 03:03:46 10° NNW
STARLINK-1237 4.2 02:56:35 10° WNW 03:00:43 62° NNE 03:04:49 10° ESE
STARLINK-1218 4.0 02:59:24 10° WNW 03:03:17 41° SW 03:07:11 10° SSE
STARLINK-1202 4.1 03:01:34 10° WNW 03:05:43 65° NNE 03:09:50 10° ESE
CZ-2D R/B 4.0 03:03:49 10° NNW 03:06:50 16° NW 03:09:49 10° W
Cosmos 2227 Rocket 3.3 03:03:22 10° NW 03:07:50 24° WSW 03:12:16 10° SSW
STARLINK-1254 4.1 03:04:25 10° WNW 03:08:15 37° SW 03:12:05 10° SSE
Cosmos 1763 Rocket 4.4 03:04:03 10° WSW 03:08:41 33° WNW 03:13:18 10° N
ADEOS II 3.1 03:05:06 10° N 03:09:44 32° WNW 03:14:21 10° SW
Cosmos 1697 Rocket 3.1 03:05:15 10° SW 03:10:45 51° WNW 03:16:19 10° NNE
Cosmos 2150 Rocket 4.0 03:06:53 10° NNW 03:12:07 86° WSW 03:17:16 10° SSE
STARLINK-1231 4.2 03:09:26 10° WNW 03:13:13 35° SW 03:16:59 10° SSE
Cosmos 1315 Rocket 2.8 03:11:15 10° N 03:15:11 90° WNW 03:19:06 10° S
STARLINK-1246 3.9 03:11:31 10° WNW 03:15:41 74° NNE 03:19:48 10° ESE
SL-16 R/B 3.8 03:11:42 10° SSE 03:16:42 33° ESE 03:21:43 10° NE
MSX 4.1 03:11:56 10° NNE 03:17:44 75° ESE 03:23:27 10° S
